User: anonymous   Login
Location: Iesi
(43.5167°N, 13.2333°E)
Time: 16:00:04
(UTC+00:00)
Language:

Cosmos 1535 Rocket - Orbit

View from above orbital plane
View from above orbital plane
View from above satellite
View from above satellite

Ground track
Ground track

The orbit data is extracted from the following two-line orbital elements,

1 14680U 84010B   20292.93764806 +.00000049 +00000-0 +34674-4 0  9991
2 14680 082.9599 217.0014 0036412 242.3630 187.5795 13.76513138843605
Epoch (UTC): 18 October 2020 22:30:12
Eccentricity: 0.0036412
inclination: 82.9599°
perigee height: 949 km
apogee height: 1003 km
right ascension of ascending node: 217.0014°
argument of perigee: 242.3630°
revolutions per day: 13.76513138
mean anomaly at epoch: 187.5795°
orbit number at epoch: 84360

The dashed part of the orbit path shows where the satellite is in the earth's shadow,  

DLR